QPF
0.00 0.00 0.00 0.00 0.00 0.00 0.00 0.00 0.00 0.00 0.00 0.00 0.00 0.00 0.00 0.00 0.00 0.00 0.00 0.00 0.00 0.00 0.00 0.00 0.00 0.00 0.00 0.00 0.00 0.00 0.00 0.00 0.00 0.00 0.00 0.00 0.00 0.00 0.00 0.00 0.00 0.00 0.00
0.00 0.00 0.00 0.00 0.00 0.00 0.00 0.00 0.00 0.00 0.00 0.00 0.00 0.00 0.00 0.00 0.00 0.00 0.00 0.00 0.00 0.00 0.00 0.00 0.00 0.00 0.00 0.00 0.00 0.00 0.00 0.00 0.00 0.00 0.01 0.00 0.00 0.00 0.00 0.00 0.00 0.00 0.00
0.00 0.00 0.00 0.00 0.00 0.00 0.00 0.00 0.00 0.00 0.00 0.00 0.00 0.00 0.00 0.00 0.00 0.00 0.00 0.00 0.00 0.00 0.00 0.00 0.00 0.00 0.00 0.00 0.00 0.00 0.00 0.00 0.00 0.01 0.02 0.02 0.00 0.00 0.00 0.00 0.00 0.00 0.00
0.00 0.00 0.00 0.00 0.00 0.00 0.00 0.00 0.00 0.00 0.00 0.00 0.00 0.00 0.00 0.00 0.00 0.00 0.00 0.00 0.00 0.00 0.00 0.00 0.00 0.00 0.00 0.00 0.00 0.00 0.00 0.01 0.01 0.01 0.01 0.02 0.02 0.02 0.01 0.00 0.00 0.00 0.00
0.00 0.00 0.00 0.00 0.00 0.00 0.00 0.00 0.00 0.00 0.00 0.00 0.00 0.00 0.00 0.00 0.00 0.00 0.00 0.00 0.00 0.00 0.00 0.00 0.00 0.00 0.00 0.00 0.00 0.00 0.01 0.01 0.01 0.01 0.01 0.01 0.02 0.02 0.03 0.01 0.00 0.00 0.00
0.00 0.00 0.00 0.00 0.00 0.00 0.00 0.00 0.00 0.00 0.00 0.00 0.00 0.00 0.00 0.00 0.00 0.00 0.00 0.00 0.00 0.00 0.00 0.00 0.00 0.00 0.00 0.00 0.00 0.01 0.01 0.01 0.01 0.01 0.01 0.01 0.02 0.02 0.03 0.03 0.01 0.01 0.00
0.00 0.00 0.00 0.00 0.00 0.00 0.00 0.00 0.00 0.00 0.00 0.00 0.00 0.00 0.00 0.00 0.00 0.00 0.00 0.00 0.00 0.00 0.00 0.00 0.00 0.00 0.00 0.00 0.01 0.01 0.01 0.01 0.01 0.01 0.01 0.01 0.02 0.02 0.03 0.03 0.02 0.01 0.01
0.00 0.00 0.00 0.00 0.00 0.00 0.00 0.00 0.00 0.00 0.00 0.00 0.00 0.00 0.00 0.00 0.00 0.00 0.00 0.00 0.00 0.00 0.01 0.01 0.00 0.00 0.00 0.00 0.01 0.01 0.01 0.01 0.01 0.02 0.02 0.02 0.02 0.02 0.03 0.03 0.03 0.03 0.01
0.00 0.00 0.00 0.00 0.00 0.00 0.00 0.00 0.00 0.00 0.00 0.00 0.00 0.00 0.00 0.00 0.00 0.00 0.00 0.00 0.00 0.00 0.01 0.00 0.00 0.00 0.00 0.00 0.01 0.01 0.01 0.01 0.02 0.02 0.03 0.03 0.03 0.03 0.03 0.04 0.04 0.04 0.03
0.00 0.00 0.00 0.00 0.00 0.00 0.00 0.00 0.00 0.00 0.00 0.00 0.00 0.00 0.00 0.00 0.00 0.00 0.00 0.00 0.00 0.00 0.00 0.00 0.00 0.00 0.00 0.00 0.01 0.01 0.01 0.01 0.01 0.02 0.02 0.03 0.04 0.05 0.06 0.06 0.05 0.05 0.04
0.00 0.00 0.00 0.00 0.00 0.00 0.00 0.00 0.00 0.00 0.00 0.00 0.00 0.00 0.00 0.00 0.00 0.00 0.00 0.00 0.00 0.00 0.00 0.00 0.00 0.00 0.00 0.00 0.01 0.01 0.01 0.01 0.01 0.02 0.03 0.04 0.06 0.09 0.11 0.11 0.10 0.08 0.07
0.00 0.00 0.00 0.00 0.00 0.00 0.00 0.00 0.00 0.00 0.00 0.00 0.00 0.00 0.00 0.00 0.00 0.00 0.00 0.00 0.00 0.00 0.00 0.00 0.00 0.00 0.00 0.00 0.01 0.01 0.01 0.01 0.01 0.02 0.04 0.05 0.08 0.11 0.16 0.18 0.17 0.13 0.10
0.00 0.00 0.00 0.00 0.00 0.00 0.00 0.00 0.00 0.00 0.00 0.00 0.00 0.00 0.00 0.00 0.00 0.00 0.00 0.00 0.00 0.00 0.00 0.00 0.00 0.00 0.00 0.00 0.01 0.02 0.01 0.01 0.01 0.02 0.03 0.05 0.08 0.11 0.16 0.21 0.22 0.21 0.16
0.00 0.00 0.00 0.00 0.00 0.00 0.00 0.00 0.00 0.00 0.00 0.00 0.00 0.00 0.00 0.00 0.00 0.00 0.00 0.00 0.00 0.00 0.00 0.00 0.00 0.00 0.00 0.01 0.04 0.05 0.02 0.01 0.02 0.02 0.03 0.05 0.07 0.10 0.14 0.20 0.24 0.24 0.23
0.00 0.00 0.00 0.00 0.00 0.00 0.00 0.00 0.00 0.00 0.00 0.00 0.00 0.00 0.00 0.00 0.00 0.00 0.00 0.00 0.00 0.00 0.00 0.00 0.00 0.00 0.00 0.02 0.10 0.11 0.03 0.01 0.01 0.02 0.04 0.05 0.08 0.11 0.14 0.18 0.22 0.24 0.25
0.00 0.00 0.00 0.00 0.00 0.00 0.00 0.00 0.00 0.00 0.00 0.00 0.00 0.00 0.00 0.00 0.00 0.00 0.00 0.00 0.00 0.00 0.00 0.00 0.00 0.00 0.00 0.03 0.12 0.12 0.03 0.01 0.01 0.02 0.03 0.04 0.06 0.09 0.12 0.15 0.18 0.22 0.26
0.00 0.00 0.00 0.00 0.00 0.00 0.00 0.00 0.00 0.00 0.00 0.00 0.00 0.00 0.00 0.00 0.00 0.00 0.00 0.00 0.00 0.00 0.00 0.00 0.00 0.00 0.00 0.02 0.09 0.11 0.03 0.01 0.02 0.02 0.02 0.03 0.04 0.06 0.08 0.10 0.12 0.15 0.21
0.00 0.00 0.00 0.00 0.00 0.00 0.00 0.00 0.00 0.00 0.00 0.00 0.00 0.00 0.00 0.00 0.00 0.00 0.00 0.00 0.00 0.00 0.00 0.00 0.00 0.00 0.00 0.01 0.06 0.10 0.02 0.01 0.02 0.03 0.02 0.02 0.03 0.04 0.05 0.07 0.09 0.12 0.15
0.00 0.00 0.00 0.00 0.00 0.00 0.00 0.00 0.00 0.00 0.00 0.00 0.00 0.00 0.00 0.00 0.00 0.00 0.00 0.00 0.00 0.00 0.00 0.00 0.00 0.00 0.00 0.00 0.04 0.11 0.03 0.01 0.02 0.03 0.03 0.03 0.03 0.03 0.02 0.04 0.08 0.09 0.11
0.00 0.00 0.00 0.00 0.00 0.00 0.00 0.00 0.00 0.00 0.00 0.00 0.00 0.00 0.00 0.00 0.00 0.00 0.00 0.00 0.00 0.00 0.00 0.00 0.00 0.00 0.00 0.00 0.03 0.13 0.05 0.01 0.01 0.02 0.03 0.07 0.06 0.03 0.01 0.02 0.04 0.06 0.08
0.00 0.00 0.00 0.00 0.00 0.00 0.00 0.00 0.00 0.00 0.00 0.00 0.00 0.00 0.00 0.00 0.00 0.00 0.00 0.00 0.00 0.00 0.00 0.00 0.00 0.00 0.00 0.00 0.02 0.11 0.10 0.04 0.01 0.01 0.02 0.06 0.07 0.04 0.03 0.02 0.02 0.04 0.03
0.00 0.00 0.00 0.00 0.00 0.00 0.00 0.00 0.00 0.00 0.00 0.00 0.00 0.00 0.00 0.00 0.00 0.00 0.00 0.00 0.00 0.00 0.00 0.00 0.00 0.00 0.00 0.00 0.02 0.06 0.07 0.06 0.01 0.02 0.04 0.08 0.07 0.05 0.03 0.02 0.01 0.01 0.01
0.00 0.00 0.00 0.00 0.00 0.00 0.00 0.00 0.00 0.00 0.00 0.00 0.00 0.00 0.00 0.00 0.00 0.00 0.00 0.00 0.00 0.00 0.00 0.01 0.01 0.00 0.00 0.00 0.03 0.04 0.03 0.03 0.02 0.06 0.13 0.09 0.04 0.03 0.02 0.01 0.00 0.00 0.00
0.00 0.00 0.00 0.00 0.00 0.00 0.00 0.00 0.00 0.00 0.00 0.00 0.00 0.00 0.00 0.00 0.00 0.00 0.00 0.01 0.01 0.02 0.04 0.04 0.03 0.01 0.01 0.02 0.06 0.04 0.02 0.02 0.01 0.03 0.09 0.07 0.02 0.00 0.00 0.00 0.00 0.00 0.00
0.00 0.00 0.00 0.00 0.00 0.00 0.00 0.00 0.00 0.00 0.00 0.00 0.00 0.00 0.00 0.00 0.00 0.00 0.00 0.01 0.02 0.05 0.10 0.08 0.05 0.03 0.03 0.07 0.09 0.05 0.04 0.05 0.04 0.02 0.03 0.02 0.01 0.01 0.00 0.00 0.00 0.00 0.00
0.00 0.00 0.00 0.00 0.00 0.00 0.00 0.00 0.00 0.00 0.00 0.00 0.00 0.00 0.00 0.00 0.00 0.01 0.01 0.01 0.01 0.03 0.04 0.04 0.05 0.05 0.06 0.08 0.06 0.02 0.02 0.03 0.02 0.01 0.01 0.02 0.01 0.01 0.00 0.00 0.00 0.00 0.00
MSLP
1031.85 1031.91 1032.05 1032.21 1032.31 1032.29 1032.09 1031.67 1031.06 1030.29 1029.43 1028.57 1027.78 1027.10 1026.55 1026.12 1025.77 1025.43 1025.04 1024.56 1023.98 1023.29 1022.52 1021.71 1020.88 1020.07 1019.28 1018.50 1017.69 1016.83 1015.91 1014.90 1013.83 1012.75 1011.71 1010.78 1010.01 1009.45 1009.11 1008.96 1008.96 1009.05 1009.19
1032.03 1032.11 1032.27 1032.47 1032.63 1032.67 1032.54 1032.19 1031.64 1030.91 1030.08 1029.22 1028.40 1027.67 1027.05 1026.54 1026.09 1025.67 1025.21 1024.67 1024.06 1023.36 1022.61 1021.84 1021.07 1020.34 1019.62 1018.91 1018.16 1017.34 1016.43 1015.40 1014.28 1013.12 1011.98 1010.91 1010.00 1009.28 1008.79 1008.50 1008.39 1008.40 1008.50
1032.30 1032.38 1032.56 1032.78 1032.98 1033.08 1033.01 1032.73 1032.23 1031.55 1030.75 1029.89 1029.03 1028.25 1027.55 1026.94 1026.40 1025.87 1025.33 1024.74 1024.09 1023.38 1022.65 1021.91 1021.19 1020.51 1019.85 1019.19 1018.50 1017.72 1016.83 1015.82 1014.70 1013.50 1012.30 1011.15 1010.13 1009.28 1008.65 1008.23 1008.00 1007.92 1007.94
1032.64 1032.74 1032.93 1033.16 1033.38 1033.51 1033.48 1033.26 1032.81 1032.18 1031.40 1030.54 1029.67 1028.83 1028.05 1027.35 1026.71 1026.10 1025.48 1024.83 1024.14 1023.42 1022.69 1021.96 1021.27 1020.62 1019.99 1019.37 1018.70 1017.96 1017.11 1016.13 1015.03 1013.85 1012.64 1011.47 1010.39 1009.46 1008.72 1008.18 1007.83 1007.63 1007.56
1033.04 1033.16 1033.35 1033.58 1033.79 1033.93 1033.93 1033.74 1033.34 1032.75 1032.00 1031.15 1030.26 1029.39 1028.56 1027.78 1027.06 1026.37 1025.69 1024.99 1024.27 1023.53 1022.79 1022.06 1021.37 1020.71 1020.07 1019.44 1018.79 1018.07 1017.25 1016.31 1015.27 1014.15 1012.99 1011.83 1010.75 1009.78 1008.97 1008.33 1007.86 1007.55 1007.37
1033.45 1033.58 1033.76 1033.97 1034.17 1034.30 1034.30 1034.13 1033.76 1033.21 1032.50 1031.68 1030.80 1029.91 1029.05 1028.23 1027.46 1026.72 1025.99 1025.26 1024.51 1023.75 1022.98 1022.23 1021.50 1020.80 1020.12 1019.46 1018.78 1018.06 1017.26 1016.38 1015.41 1014.37 1013.29 1012.20 1011.15 1010.19 1009.34 1008.63 1008.06 1007.64 1007.34
1033.80 1033.95 1034.12 1034.30 1034.47 1034.57 1034.56 1034.40 1034.06 1033.54 1032.88 1032.10 1031.26 1030.39 1029.52 1028.69 1027.90 1027.13 1026.37 1025.61 1024.84 1024.05 1023.26 1022.46 1021.67 1020.91 1020.16 1019.43 1018.71 1017.96 1017.18 1016.34 1015.44 1014.50 1013.51 1012.52 1011.54 1010.61 1009.75 1009.00 1008.35 1007.82 1007.42
1034.07 1034.23 1034.38 1034.53 1034.65 1034.72 1034.69 1034.54 1034.22 1033.75 1033.14 1032.42 1031.62 1030.79 1029.95 1029.13 1028.34 1027.56 1026.79 1026.02 1025.23 1024.41 1023.58 1022.72 1021.87 1021.03 1020.20 1019.39 1018.60 1017.81 1017.02 1016.22 1015.38 1014.52 1013.64 1012.75 1011.85 1010.97 1010.13 1009.35 1008.65 1008.04 1007.53
1034.24 1034.40 1034.54 1034.66 1034.75 1034.79 1034.74 1034.58 1034.29 1033.86 1033.30 1032.64 1031.90 1031.12 1030.32 1029.53 1028.74 1027.97 1027.19 1026.41 1025.60 1024.76 1023.89 1022.99 1022.07 1021.15 1020.24 1019.35 1018.49 1017.65 1016.84 1016.04 1015.26 1014.47 1013.67 1012.87 1012.05 1011.23 1010.42 1009.64 1008.90 1008.22 1007.63
1034.34 1034.51 1034.65 1034.74 1034.80 1034.81 1034.74 1034.58 1034.30 1033.91 1033.40 1032.80 1032.12 1031.39 1030.63 1029.85 1029.08 1028.31 1027.53 1026.73 1025.91 1025.05 1024.15 1023.21 1022.24 1021.27 1020.29 1019.33 1018.40 1017.51 1016.67 1015.87 1015.10 1014.36 1013.62 1012.89 1012.14 1011.37 1010.60 1009.82 1009.05 1008.33 1007.68
1034.43 1034.63 1034.76 1034.85 1034.89 1034.87 1034.79 1034.61 1034.34 1033.97 1033.49 1032.93 1032.29 1031.59 1030.86 1030.10 1029.33 1028.55 1027.76 1026.95 1026.11 1025.24 1024.32 1023.36 1022.37 1021.36 1020.34 1019.33 1018.35 1017.42 1016.54 1015.72 1014.96 1014.23 1013.53 1012.84 1012.14 1011.41 1010.67 1009.91 1009.14 1008.39 1007.70
1034.58 1034.80 1034.95 1035.04 1035.07 1035.03 1034.93 1034.73 1034.45 1034.07 1033.61 1033.05 1032.43 1031.75 1031.02 1030.27 1029.49 1028.70 1027.89 1027.06 1026.21 1025.33 1024.41 1023.45 1022.45 1021.43 1020.39 1019.37 1018.36 1017.39 1016.49 1015.64 1014.86 1014.13 1013.44 1012.77 1012.10 1011.41 1010.70 1009.95 1009.20 1008.45 1007.73
1034.83 1035.09 1035.28 1035.38 1035.40 1035.34 1035.19 1034.96 1034.64 1034.24 1033.75 1033.19 1032.56 1031.87 1031.14 1030.36 1029.57 1028.75 1027.92 1027.08 1026.22 1025.33 1024.42 1023.47 1022.49 1021.48 1020.46 1019.43 1018.41 1017.43 1016.50 1015.63 1014.82 1014.08 1013.38 1012.72 1012.07 1011.42 1010.74 1010.03 1009.30 1008.56 1007.84
1035.21 1035.53 1035.74 1035.85 1035.85 1035.76 1035.56 1035.28 1034.90 1034.45 1033.92 1033.32 1032.66 1031.95 1031.19 1030.40 1029.58 1028.74 1027.89 1027.03 1026.16 1025.28 1024.38 1023.45 1022.50 1021.52 1020.52 1019.51 1018.50 1017.51 1016.57 1015.68 1014.85 1014.09 1013.39 1012.74 1012.12 1011.49 1010.86 1010.20 1009.51 1008.81 1008.10
1035.72 1036.07 1036.31 1036.42 1036.39 1036.25 1035.99 1035.63 1035.18 1034.65 1034.06 1033.41 1032.71 1031.97 1031.19 1030.37 1029.53 1028.67 1027.81 1026.94 1026.07 1025.19 1024.31 1023.41 1022.49 1021.54 1020.57 1019.58 1018.59 1017.61 1016.67 1015.77 1014.93 1014.17 1013.47 1012.84 1012.24 1011.67 1011.10 1010.50 1009.88 1009.23 1008.56
1036.29 1036.67 1036.91 1037.00 1036.93 1036.72 1036.38 1035.93 1035.39 1034.78 1034.12 1033.42 1032.68 1031.91 1031.11 1030.28 1029.43 1028.57 1027.70 1026.83 1025.96 1025.10 1024.23 1023.35 1022.45 1021.53 1020.59 1019.63 1018.66 1017.70 1016.76 1015.87 1015.03 1014.28 1013.61 1013.00 1012.46 1011.95 1011.46 1010.95 1010.41 1009.83 1009.23
1036.89 1037.26 1037.48 1037.52 1037.39 1037.09 1036.66 1036.11 1035.48 1034.79 1034.07 1033.31 1032.53 1031.74 1030.94 1030.11 1029.27 1028.42 1027.56 1026.71 1025.85 1024.99 1024.14 1023.27 1022.39 1021.50 1020.58 1019.64 1018.69 1017.75 1016.83 1015.95 1015.14 1014.42 1013.78 1013.23 1012.75 1012.33 1011.93 1011.52 1011.09 1010.61 1010.08
1037.43 1037.77 1037.93 1037.90 1037.68 1037.29 1036.77 1036.13 1035.41 1034.65 1033.86 1033.07 1032.27 1031.47 1030.67 1029.87 1029.05 1028.22 1027.39 1026.55 1025.71 1024.87 1024.03 1023.17 1022.31 1021.43 1020.52 1019.61 1018.68 1017.76 1016.87 1016.03 1015.26 1014.58 1014.00 1013.51 1013.12 1012.78 1012.48 1012.19 1011.87 1011.50 1011.07
1037.87 1038.14 1038.21 1038.09 1037.78 1037.30 1036.69 1035.97 1035.18 1034.37 1033.54 1032.72 1031.91 1031.12 1030.34 1029.55 1028.77 1027.98 1027.17 1026.36 1025.55 1024.72 1023.89 1023.05 1022.20 1021.33 1020.45 1019.55 1018.65 1017.77 1016.91 1016.12 1015.40 1014.78 1014.26 1013.85 1013.53 1013.29 1013.10 1012.91 1012.70 1012.44 1012.12
1038.21 1038.37 1038.34 1038.12 1037.71 1037.15 1036.47 1035.69 1034.86 1034.00 1033.15 1032.32 1031.51 1030.72 1029.96 1029.20 1028.45 1027.69 1026.92 1026.14 1025.35 1024.55 1023.74 1022.92 1022.08 1021.24 1020.38 1019.51 1018.65 1017.81 1017.01 1016.27 1015.61 1015.05 1014.60 1014.27 1014.02 1013.86 1013.75 1013.65 1013.54 1013.38 1013.17
1038.44 1038.48 1038.33 1038.01 1037.53 1036.90 1036.17 1035.35 1034.50 1033.63 1032.77 1031.93 1031.12 1030.34 1029.59 1028.85 1028.11 1027.38 1026.64 1025.89 1025.13 1024.37 1023.59 1022.79 1021.99 1021.18 1020.36 1019.55 1018.74 1017.95 1017.21 1016.54 1015.95 1015.45 1015.07 1014.79 1014.61 1014.50 1014.45 1014.42 1014.38 1014.30 1014.17
1038.60 1038.50 1038.25 1037.84 1037.29 1036.63 1035.87 1035.05 1034.19 1033.32 1032.46 1031.62 1030.81 1030.03 1029.27 1028.54 1027.81 1027.09 1026.38 1025.65 1024.93 1024.20 1023.46 1022.72 1021.96 1021.21 1020.45 1019.69 1018.95 1018.23 1017.57 1016.96 1016.44 1016.01 1015.68 1015.45 1015.31 1015.24 1015.22 1015.23 1015.23 1015.20 1015.13
1038.71 1038.50 1038.14 1037.67 1037.08 1036.39 1035.63 1034.82 1033.98 1033.13 1032.27 1031.44 1030.62 1029.83 1029.06 1028.31 1027.58 1026.86 1026.16 1025.46 1024.77 1024.08 1023.40 1022.71 1022.02 1021.33 1020.65 1019.97 1019.31 1018.68 1018.09 1017.56 1017.11 1016.74 1016.45 1016.26 1016.14 1016.08 1016.08 1016.09 1016.11 1016.11 1016.07
1038.81 1038.49 1038.06 1037.53 1036.92 1036.24 1035.50 1034.71 1033.90 1033.07 1032.23 1031.39 1030.57 1029.75 1028.96 1028.19 1027.45 1026.72 1026.02 1025.35 1024.69 1024.05 1023.42 1022.80 1022.19 1021.58 1020.98 1020.39 1019.81 1019.27 1018.76 1018.31 1017.93 1017.61 1017.37 1017.20 1017.09 1017.04 1017.03 1017.04 1017.05 1017.05 1017.03
1038.89 1038.49 1038.01 1037.45 1036.83 1036.17 1035.45 1034.71 1033.92 1033.12 1032.30 1031.46 1030.63 1029.80 1028.98 1028.19 1027.42 1026.69 1025.99 1025.34 1024.71 1024.11 1023.54 1022.99 1022.45 1021.93 1021.41 1020.91 1020.42 1019.96 1019.54 1019.16 1018.84 1018.58 1018.37 1018.23 1018.14 1018.08 1018.06 1018.06 1018.05 1018.04 1018.02
1038.98 1038.51 1037.99 1037.41 1036.80 1036.15 1035.47 1034.75 1034.01 1033.23 1032.43 1031.60 1030.77 1029.93 1029.10 1028.29 1027.51 1026.78 1026.09 1025.44 1024.85 1024.29 1023.77 1023.28 1022.81 1022.36 1021.91 1021.49 1021.08 1020.69 1020.35 1020.03 1019.77 1019.56 1019.39 1019.28 1019.20 1019.15 1019.12 1019.11 1019.09 1019.07 1019.03
Thickness
5506 5493 5481 5470 5458 5448 5438 5429 5421 5414 5407 5403 5400 5398 5396 5393 5390 5387 5385 5388 5392 5398 5406 5416 5427 5438 5451 5462 5475 5488 5502 5516 5530 5545 5562 5576 5587 5595 5603 5609 5615 5621 5626
5492 5478 5465 5452 5439 5426 5415 5406 5398 5391 5385 5380 5377 5375 5374 5373 5370 5367 5365 5365 5367 5371 5378 5386 5397 5409 5422 5435 5448 5461 5476 5490 5504 5520 5538 5559 5573 5586 5592 5598 5604 5611 5617
5477 5463 5448 5434 5421 5407 5395 5385 5378 5373 5368 5364 5362 5361 5360 5358 5355 5353 5351 5349 5348 5350 5354 5360 5369 5380 5393 5407 5421 5435 5450 5465 5480 5494 5510 5533 5555 5568 5581 5588 5594 5600 5606
5461 5446 5430 5416 5402 5388 5376 5368 5362 5358 5354 5350 5349 5347 5346 5344 5341 5339 5338 5336 5336 5336 5337 5340 5346 5355 5366 5380 5394 5409 5424 5440 5457 5472 5487 5503 5520 5536 5558 5571 5580 5587 5593
5445 5430 5414 5398 5383 5370 5360 5353 5348 5344 5340 5336 5334 5332 5331 5328 5327 5326 5326 5325 5325 5324 5325 5326 5330 5337 5345 5356 5369 5384 5400 5416 5432 5448 5463 5479 5496 5513 5528 5545 5560 5571 5579
5432 5415 5398 5381 5368 5356 5347 5340 5336 5331 5326 5322 5320 5317 5316 5314 5314 5313 5314 5314 5314 5314 5315 5316 5319 5325 5331 5339 5349 5363 5377 5393 5409 5425 5441 5455 5471 5490 5506 5522 5538 5550 5563
5418 5400 5383 5368 5355 5344 5335 5328 5323 5318 5312 5308 5304 5301 5299 5298 5297 5297 5299 5300 5303 5304 5304 5306 5309 5315 5320 5327 5335 5346 5359 5373 5388 5404 5419 5434 5449 5463 5478 5495 5513 5528 5542
5403 5384 5368 5354 5342 5332 5323 5316 5309 5303 5297 5292 5288 5285 5282 5280 5280 5280 5281 5284 5287 5290 5292 5296 5300 5305 5311 5317 5324 5334 5344 5356 5369 5384 5399 5414 5429 5442 5455 5470 5485 5502 5520
5388 5370 5355 5342 5330 5320 5310 5302 5294 5288 5282 5276 5272 5269 5266 5264 5263 5263 5265 5267 5270 5275 5279 5284 5290 5295 5301 5308 5314 5323 5333 5343 5354 5367 5380 5395 5410 5423 5435 5449 5461 5475 5494
5374 5358 5344 5331 5318 5307 5297 5288 5280 5273 5267 5261 5257 5253 5251 5248 5247 5248 5249 5251 5254 5259 5265 5271 5278 5284 5291 5298 5304 5312 5321 5331 5342 5352 5364 5377 5391 5404 5416 5428 5441 5454 5468
5362 5347 5333 5319 5306 5295 5285 5276 5269 5261 5255 5250 5245 5242 5239 5236 5235 5234 5234 5236 5239 5243 5249 5256 5263 5271 5279 5286 5293 5301 5310 5320 5330 5340 5351 5362 5374 5387 5400 5411 5422 5434 5447
5351 5336 5323 5309 5296 5285 5274 5265 5258 5251 5245 5240 5235 5232 5229 5226 5224 5223 5222 5222 5225 5228 5233 5239 5247 5255 5264 5272 5280 5289 5299 5309 5318 5327 5337 5348 5359 5371 5383 5395 5406 5417 5428
5342 5327 5313 5300 5287 5275 5265 5256 5249 5242 5236 5231 5227 5223 5220 5216 5214 5212 5210 5210 5212 5214 5218 5223 5231 5239 5247 5257 5267 5276 5287 5297 5306 5314 5323 5333 5343 5354 5366 5378 5389 5400 5411
5332 5318 5304 5290 5278 5266 5256 5248 5242 5235 5229 5224 5219 5215 5211 5207 5204 5202 5200 5199 5200 5202 5205 5209 5215 5222 5231 5241 5251 5262 5275 5285 5293 5300 5308 5318 5328 5338 5350 5363 5373 5384 5395
5323 5308 5294 5281 5269 5259 5250 5243 5236 5229 5223 5217 5212 5207 5203 5199 5196 5193 5191 5189 5188 5189 5192 5196 5201 5207 5215 5224 5234 5248 5261 5270 5278 5286 5295 5304 5314 5323 5334 5346 5358 5369 5380
5313 5298 5284 5272 5262 5253 5245 5237 5230 5222 5216 5211 5205 5201 5196 5192 5189 5186 5183 5181 5180 5179 5181 5184 5188 5193 5199 5207 5218 5231 5245 5255 5262 5271 5280 5291 5300 5310 5319 5330 5341 5353 5364
5302 5288 5275 5265 5256 5247 5239 5231 5223 5217 5210 5205 5200 5195 5191 5187 5183 5180 5177 5174 5172 5170 5170 5172 5175 5179 5185 5192 5202 5214 5227 5237 5246 5255 5264 5275 5285 5295 5304 5314 5324 5334 5346
5292 5280 5269 5259 5250 5242 5233 5224 5217 5212 5206 5200 5196 5192 5187 5183 5179 5174 5171 5167 5164 5161 5160 5161 5162 5166 5171 5177 5186 5197 5210 5221 5229 5238 5248 5258 5270 5280 5289 5298 5306 5315 5325
5284 5273 5263 5255 5247 5238 5229 5221 5215 5209 5203 5198 5193 5188 5183 5178 5173 5167 5162 5158 5153 5150 5148 5147 5149 5152 5156 5162 5170 5180 5193 5205 5213 5222 5232 5241 5253 5264 5273 5282 5290 5298 5306
5278 5268 5260 5252 5244 5236 5227 5219 5213 5208 5202 5196 5189 5183 5177 5171 5165 5158 5152 5146 5140 5135 5131 5130 5132 5136 5141 5147 5155 5164 5177 5188 5198 5207 5216 5225 5236 5247 5256 5265 5273 5280 5288
5274 5264 5257 5250 5242 5233 5224 5217 5212 5207 5199 5191 5185 5179 5172 5165 5158 5150 5141 5133 5126 5119 5114 5112 5115 5120 5126 5133 5140 5148 5158 5169 5180 5189 5199 5208 5219 5229 5238 5246 5254 5261 5270
5271 5261 5254 5247 5239 5231 5224 5219 5213 5204 5196 5189 5183 5176 5169 5161 5153 5143 5133 5122 5112 5103 5098 5097 5099 5104 5111 5118 5126 5134 5143 5153 5163 5172 5181 5190 5201 5210 5219 5227 5235 5243 5253
5268 5259 5251 5245 5238 5232 5225 5219 5211 5203 5195 5189 5182 5175 5167 5159 5149 5138 5127 5115 5102 5092 5086 5085 5086 5091 5098 5106 5113 5121 5130 5138 5146 5154 5163 5172 5181 5191 5200 5207 5216 5226 5235
5265 5256 5249 5243 5238 5233 5226 5218 5210 5202 5195 5189 5183 5175 5168 5159 5148 5135 5121 5107 5095 5084 5078 5077 5077 5081 5088 5095 5102 5110 5118 5125 5133 5139 5145 5154 5162 5171 5179 5188 5196 5205 5214
5261 5254 5246 5242 5239 5233 5226 5219 5210 5202 5196 5190 5184 5176 5168 5158 5147 5132 5117 5103 5090 5079 5072 5070 5070 5074 5080 5085 5093 5099 5106 5112 5119 5125 5132 5139 5146 5154 5161 5169 5177 5186 5195
5259 5252 5247 5243 5238 5233 5226 5219 5211 5203 5197 5192 5185 5178 5169 5158 5146 5134 5120 5105 5093 5082 5073 5068 5068 5070 5074 5080 5086 5091 5096 5101 5107 5113 5118 5123 5129 5136 5143 5151 5159 5167 5176